Regional Weather Roundup
Issued by NWS

Home | Current Version | Previous Version | Text Only | Print | Product List | Glossary Off
Versions: 1 2 3 4 5 6 7 8 9 10 11 12 13 14 15 16 17 18 19 20 21 22 23 24 25 26 27

000
ASUS45 KTFX 212310
RWRMT
MONTANA REGIONAL WEATHER ROUNDUP
NATIONAL WEATHER SERVICE GREAT FALLS MT
400 PM MST SUN JAN 21 2018

NOTE: "FAIR" INDICATES FEW OR NO CLOUDS BELOW 12000 FEET WITH NO
SIGNIFICANT WEATHER AND/OR OBSTRUCTIONS TO VISIBILITY.

MTZ001>007-043-220000-
WEST OF THE DIVIDE

CITY           SKY/WX    TMP DP  RH WIND       PRES   REMARKS
KALISPELL      FAIR      35  23  61 S13       30.03F WCI  26
MISSOULA       FAIR      36  21  54 SE14      30.06F WCI  27
BUTTE          FAIR      19  12  74 CALM      30.05R
MULLAN PASS    FAIR      23  21  92 VRB5      29.91F
ANACONDA         N/A     28  16  59 S15G23    30.05R WCI  17
DEER LODGE       N/A     21  14  73 NW6       30.08F WCI  14
EUREKA           N/A     37  25  60 MISG      29.98F
HAMILTON         N/A     39  18  41 SE13      30.07F WCI  32
PLAINS           N/A     38  25  60 CALM      30.03F
RONAN            N/A     34  21  60 S9        30.05F WCI  26
$$

MTZ008-052>055-220000-
SOUTHWEST MONTANA

CITY           SKY/WX    TMP DP  RH WIND       PRES   REMARKS
BOZEMAN        FAIR      22  14  71 SE6       30.07F WCI  14
DILLON         FAIR      25  14  63 S10       30.06S WCI  15
ENNIS          SUNNY     28  14  54 SW8       30.10F WCI  20
W YELLOWSTONE  FAIR      19  16  86 SW12      30.07S WCI   7
THREE FORKS      N/A     31  18  58 CALM      30.06S
TWIN BRIDGES     N/A     32  12  43 S1        30.06S
$$

MTZ009-010-012-014-046-048-049-054-220000-
EAST SLOPES AND CENTRAL MONTANA

CITY           SKY/WX    TMP DP  RH WIND       PRES   REMARKS
CUT BANK       FAIR      36  18  48 SW18      29.88F WCI  26
GREAT FALLS    FAIR      36  16  44 SW24G38   29.94S WCI  24
MALMSTROM AFB  FAIR      36  19  50 SW18      29.96R WCI  26
HELENA         FAIR      30  20  66 CALM      30.06S
AUGUSTA        FAIR      34  17  50 W18       29.92S WCI  23
BOWMANS CRNR   FAIR      31  18  60 S26G33    29.93S WCI  17
CHOTEAU          N/A     37  19  48 SW14      29.92S WCI  29
FAIRFIELD      FAIR      37  17  44 SW20G26   29.92S WCI  26
POWER          FAIR      33  20  60 SW22      29.93S WCI  20
RAYNESFORD     FAIR      37  13  36 SW16      29.94R WCI  27
ULM            FAIR      37  19  48 W21G29    29.96S WCI  26
WHITE SULPHUR    N/A     25  14  63 S20G25    30.00S WCI  11
$$

MTZ011-013-016-021-045-047-050-051-220000-
NORTH CENTRAL MONTANA

CITY           SKY/WX    TMP DP  RH WIND       PRES   REMARKS
HAVRE          FAIR      29  23  78 SW7       29.95F WCI  22
LEWISTOWN      FAIR      34  16  47 E5        29.93F
N BAR RANCH    FAIR      32  18  55 SE5       29.96S
CHINOOK          N/A     25  16  68 E6        29.97S WCI  18
DENTON         FAIR      31  24  73 MISG      29.91S
GEYSER         FAIR      35  20  53 CALM      29.92R
GRASS RANGE    FAIR      36  19  51 SW5       29.91F
STANFORD       FAIR      35  18  49 NE7       29.92S WCI  29
WINIFRED       FAIR      33  21  62 N6        29.94S WCI  27
$$

MTZ017>020-022>027-061-062-220000-
NORTHEAST MONTANA

CITY           SKY/WX    TMP DP  RH WIND       PRES   REMARKS
GLASGOW        FAIR      24  16  71 CALM      29.99S
GLENDIVE       FAIR      25  20  81 SE7       30.01S WCI  17
JORDAN           N/A     30  22  72 CALM      29.99S
MALTA          CLEAR     21  16  79 CALM      29.99F
SIDNEY         FAIR      35  22  58 W5        30.01R
WOLF POINT     FAIR      25  17  72 S6        30.01R WCI  18
PLENTYWOOD       N/A     30  21  69 CALM      29.95S
POPLAR           N/A     27  18  69 SW5       30.01R
SCOBEY           N/A     29  17  60 CALM      29.94S
$$

MTZ028>42-056>058-220000-
SOUTHCENTRAL AND SOUTHEAST MONTANA

CITY           SKY/WX    TMP DP  RH WIND       PRES   REMARKS
BAKER          FAIR      28  22  78 W12       30.01R WCI  18
BILLINGS       FAIR      35  16  45 SW10      29.99F WCI  27
LIVINGSTON     FAIR      29  17  61 W14       30.02F WCI  18
MILES CITY     FAIR      26  19  74 S5        30.03S
BIG TIMBER     CLEAR     30  18  59 W24G31    29.99S WCI  16
EKALAKA          N/A     26  15  63 W5        29.98R
FORSYTH          N/A     25  18  74 E5        30.03S
HARLOWTON      FAIR      29  18  63 W26G36    29.94F WCI  14
LAUREL           N/A     36  18  48 SW10      30.01S WCI  28
ROUNDUP          N/A     34  17  50 SW14      29.89S WCI  25
$$

REGIONAL REPORTS...DAKOTAS

CITY           SKY/WX    TMP DP  RH WIND       PRES   REMARKS
WILLISTON      FAIR      29  21  72 SW9       29.99S WCI  20
MINOT          FAIR      30  22  72 S8        29.99R WCI  22
DICKINSON      FAIR      30  23  75 W8        29.97R WCI  22
BEACH          FAIR      28  23  80 SW7       30.03R WCI  21
CROSBY         FAIR      27  19  74 SW9       29.97S WCI  17
TIOGA          FAIR      25  23  93 W10       29.98S WCI  15
BISMARCK       FAIR      27  22  81 CALM      30.03S
GRAND FORKS    CLOUDY    25  23  92 N8        30.10R WCI  16
FARGO          MOCLDY    26  23  88 N7        30.06S WCI  18
BUFFALO SD       N/A     31  22  69 NW15      29.92R WCI  20
RAPID CITY     CLOUDY    34  22  61 N10       29.97R WCI  26
$$

REGIONAL REPORTS...WYOMING/IDAHO/WASHINGTON

CITY           SKY/WX    TMP DP  RH WIND       PRES   REMARKS
GILLETTE       FAIR      29  23  78 W6        30.01R WCI  23
SHERIDAN       FAIR      31  18  58 W5        30.02R
BUFFALO WY     FAIR      30  14  51 N5        30.00S
CODY           FAIR      32  15  49 CALM      30.00S
YELLOWSTONE LA   N/A      9   5  84 CALM      30.07R
IDAHO FALLS    FAIR      32  21  64 S13       30.17R WCI  22
SALMON         FAIR      30  20  66 CALM      30.17S
BOISE          FAIR      44  25  47 SE12      30.17F
SPOKANE        CLOUDY    39  27  62 SE14G22   29.95S WCI  31
$$

REGIONAL REPORTS...ALBERTA

CITY           SKY/WX    TMP DP  RH WIND       PRES   REMARKS
CALGARY        PTCLDY    37  19  48 S5        29.69
EDMONTON       CLEAR     21  18  86 E8        29.72F WCI  12
FORT MCMURRAY  CLOUDY     9   3  78 E8        29.98F WCI  -4
HIGH LEVEL     FLURRIES  10   7  85 SE13G20   29.87F WCI  -5
LETHBRIDGE     MOCLDY    37  23  56 SW10      29.83F WCI  30
LLOYDMINSTER   CLOUDY    23  21  93 E16       29.86F FOG     WCI  10
MEDICINE HAT   PTCLDY    37  25  60 S15G22    29.86F WCI  28
MILK RIVER       N/A     36  25  64 SW9         N/A  WCI  29
ONEFOUR          N/A     19  14  79 E9          N/A  WCI   9
PEACE RIVER    MOCLDY    21  18  86 NE13      29.62F WCI   9
PINCHER CREEK  CLEAR     32  21  64 SW20G30   29.82F WCI  20
WATERTON GATE    N/A     34  16  47 SW24G33     N/A  WCI  21
$$

REGIONAL REPORTS...SASKATCHEWAN

CITY           SKY/WX    TMP DP  RH WIND       PRES   REMARKS
CYPRESS HILLS    N/A     28  12  50 SW8         N/A  WCI  20
ESTEVAN        PTCLDY    25  18  74 SW6       29.96S WCI  18
MOOSE JAW        N/A     32  21  64 NW3         N/A
PRINCE ALBERT  CLOUDY    19  16  86 E6        30.01R WCI  11
REGINA         PTCLDY    23  18  80 S5        29.94S
ROCKGLEN         N/A     23  16  74 W13         N/A  WCI  11
SASKATOON      CLOUDY    23  23 100 E8        29.97S FOG     WCI  14
SWIFT CURRENT  CLEAR     34  21  60 SW8       29.88S WCI  27
VAL MARIE        N/A     28  18  64 W5          N/A
$$




USA.gov is the U.S. government's official web portal to all federal, state and local government web resources and services.